Time,TemperatureF,DewpointF,PressureIn,WindDirection,WindDirectionDegrees,WindSpeedMPH,WindSpeedGustMPH,Humidity,HourlyPrecipIn,Conditions,Clouds,dailyrainin,SolarRadiationWatts/m^2,SoftwareType,DateUTC
2013-04-24 00:01:00,71.0,54.0,-100.00,SSE,162,7.0,22.0,56,0.00,,,0.00,164.000000,,2013-04-24 00:01:00,
2013-04-24 00:11:00,71.0,54.0,-100.00,SSE,162,7.0,22.0,56,0.00,,,0.00,164.000000,,2013-04-24 00:11:00,
2013-04-24 00:22:00,71.0,54.0,-100.00,SSE,162,7.0,22.0,56,0.00,,,0.00,164.000000,,2013-04-24 00:22:00,
2013-04-24 00:32:00,71.0,54.0,-100.00,SSE,162,7.0,22.0,56,0.00,,,0.00,164.000000,,2013-04-24 00:32:00,
2013-04-24 01:02:00,69.0,54.0,-100.00,South,170,6.0,15.0,59,0.00,,,0.00,34.000000,,2013-04-24 01:02:00,
2013-04-24 01:11:00,69.0,54.0,-100.00,South,170,6.0,15.0,59,0.00,,,0.00,34.000000,,2013-04-24 01:11:00,
2013-04-24 01:21:00,69.0,54.0,-100.00,South,170,6.0,15.0,59,0.00,,,0.00,34.000000,,2013-04-24 01:21:00,
2013-04-24 01:32:00,69.0,54.0,-100.00,South,170,6.0,15.0,59,0.00,,,0.00,34.000000,,2013-04-24 01:32:00,
2013-04-24 02:02:00,68.0,54.0,-100.00,SSE,157,5.0,11.0,62,0.00,,,0.00,0.000000,,2013-04-24 02:02:00,
2013-04-24 02:29:00,68.0,54.0,-100.00,SSE,157,5.0,11.0,62,0.00,,,0.00,0.000000,,2013-04-24 02:29:00,
2013-04-24 02:36:00,68.0,56.0,-100.00,South,175,6.0,14.0,66,0.00,,,0.00,0.000000,,2013-04-24 02:36:00,
2013-04-24 03:17:00,68.0,56.0,-100.00,South,175,6.0,14.0,66,0.00,,,0.00,0.000000,,2013-04-24 03:17:00,
2013-04-24 03:29:00,68.0,56.0,-100.00,South,175,6.0,14.0,66,0.00,,,0.00,0.000000,,2013-04-24 03:29:00,
2013-04-24 04:03:00,67.0,55.0,-100.00,South,181,7.0,14.0,66,0.00,,,0.00,0.000000,,2013-04-24 04:03:00,
2013-04-24 04:12:00,67.0,55.0,-100.00,South,181,7.0,14.0,66,0.00,,,0.00,0.000000,,2013-04-24 04:12:00,
2013-04-24 04:23:00,67.0,55.0,-100.00,South,181,7.0,14.0,66,0.00,,,0.00,0.000000,,2013-04-24 04:23:00,
2013-04-24 04:33:00,67.0,55.0,-100.00,South,181,7.0,14.0,66,0.00,,,0.00,0.000000,,2013-04-24 04:33:00,
2013-04-24 05:02:00,67.0,56.0,-100.00,South,187,7.0,18.0,67,0.00,,,0.00,0.000000,,2013-04-24 05:02:00,
2013-04-24 05:12:00,67.0,56.0,-100.00,South,187,7.0,18.0,67,0.00,,,0.00,0.000000,,2013-04-24 05:12:00,
2013-04-24 05:22:00,67.0,56.0,-100.00,South,187,7.0,18.0,67,0.00,,,0.00,0.000000,,2013-04-24 05:22:00,
2013-04-24 05:32:00,67.0,56.0,-100.00,South,187,7.0,18.0,67,0.00,,,0.00,0.000000,,2013-04-24 05:32:00,
2013-04-24 06:02:00,66.0,56.0,-100.00,South,185,7.0,17.0,69,0.00,,,0.00,0.000000,,2013-04-24 06:02:00,
2013-04-24 06:12:00,66.0,56.0,-100.00,South,185,7.0,17.0,69,0.00,,,0.00,0.000000,,2013-04-24 06:12:00,
2013-04-24 06:21:00,66.0,56.0,-100.00,South,185,7.0,17.0,69,0.00,,,0.00,0.000000,,2013-04-24 06:21:00,
2013-04-24 06:32:00,66.0,56.0,-100.00,South,185,7.0,17.0,69,0.00,,,0.00,0.000000,,2013-04-24 06:32:00,
2013-04-24 07:02:00,67.0,57.0,-100.00,South,191,6.0,19.0,70,0.00,,,-99.99,0.000000,,2013-04-24 07:02:00,
2013-04-24 07:11:00,67.0,57.0,-100.00,South,191,6.0,19.0,70,0.00,,,-99.99,0.000000,,2013-04-24 07:11:00,
2013-04-24 07:22:00,67.0,57.0,-100.00,South,191,6.0,19.0,70,0.00,,,-99.99,0.000000,,2013-04-24 07:22:00,
2013-04-24 07:32:00,67.0,57.0,-100.00,South,191,6.0,19.0,70,0.00,,,-99.99,0.000000,,2013-04-24 07:32:00,
2013-04-24 08:02:00,57.0,54.0,-100.00,WNW,282,5.0,15.0,90,0.02,,,0.02,0.000000,,2013-04-24 08:02:00,
2013-04-24 08:12:00,57.0,54.0,-100.00,WNW,282,5.0,15.0,90,0.02,,,0.02,0.000000,,2013-04-24 08:12:00,
2013-04-24 08:21:00,57.0,54.0,-100.00,WNW,282,5.0,15.0,90,0.02,,,0.02,0.000000,,2013-04-24 08:21:00,
2013-04-24 08:33:00,57.0,54.0,-100.00,WNW,282,5.0,15.0,90,0.02,,,0.02,0.000000,,2013-04-24 08:33:00,
2013-04-24 09:02:00,51.0,50.0,-100.00,WNW,285,4.0,9.0,95,0.06,,,0.08,0.000000,,2013-04-24 09:02:00,
2013-04-24 09:11:00,51.0,50.0,-100.00,WNW,285,4.0,9.0,95,0.06,,,0.08,0.000000,,2013-04-24 09:11:00,
2013-04-24 09:21:00,51.0,50.0,-100.00,WNW,285,4.0,9.0,95,0.06,,,0.08,0.000000,,2013-04-24 09:21:00,
2013-04-24 09:33:00,51.0,50.0,-100.00,WNW,285,4.0,9.0,95,0.06,,,0.08,0.000000,,2013-04-24 09:33:00,
2013-04-24 10:02:00,48.0,47.0,-100.00,NW,321,2.0,12.0,96,0.11,,,0.19,0.000000,,2013-04-24 10:02:00,
2013-04-24 10:12:00,48.0,47.0,-100.00,NW,321,2.0,12.0,96,0.11,,,0.19,0.000000,,2013-04-24 10:12:00,
2013-04-24 10:22:00,48.0,47.0,-100.00,NW,321,2.0,12.0,96,0.11,,,0.19,0.000000,,2013-04-24 10:22:00,
2013-04-24 10:32:00,48.0,47.0,-100.00,NW,321,2.0,12.0,96,0.11,,,0.19,0.000000,,2013-04-24 10:32:00,
2013-04-24 11:02:00,46.0,45.0,-100.00,NNW,348,3.0,9.0,96,0.31,,,0.50,0.000000,,2013-04-24 11:02:00,
2013-04-24 11:11:00,46.0,45.0,-100.00,NNW,348,3.0,9.0,96,0.31,,,0.50,0.000000,,2013-04-24 11:11:00,
2013-04-24 11:21:00,46.0,45.0,-100.00,NNW,348,3.0,9.0,96,0.31,,,0.50,0.000000,,2013-04-24 11:21:00,
2013-04-24 11:32:00,46.0,45.0,-100.00,NNW,348,3.0,9.0,96,0.31,,,0.50,0.000000,,2013-04-24 11:32:00,
2013-04-24 12:02:00,44.0,43.0,-100.00,WNW,293,5.0,14.0,96,0.30,,,0.80,0.000000,,2013-04-24 12:02:00,
2013-04-24 12:11:00,44.0,43.0,-100.00,WNW,293,5.0,14.0,96,0.30,,,0.80,0.000000,,2013-04-24 12:11:00,
2013-04-24 12:22:00,44.0,43.0,-100.00,WNW,293,5.0,14.0,96,0.30,,,0.80,0.000000,,2013-04-24 12:22:00,
2013-04-24 12:32:00,44.0,43.0,-100.00,WNW,293,5.0,14.0,96,0.30,,,0.80,0.000000,,2013-04-24 12:32:00,
2013-04-24 13:01:00,43.0,42.0,-100.00,WNW,284,3.0,16.0,95,0.18,,,0.98,9.000000,,2013-04-24 13:01:00,
2013-04-24 13:12:00,43.0,42.0,-100.00,WNW,284,3.0,16.0,95,0.18,,,0.98,9.000000,,2013-04-24 13:12:00,
2013-04-24 13:22:00,43.0,42.0,-100.00,WNW,284,3.0,16.0,95,0.18,,,0.98,9.000000,,2013-04-24 13:22:00,
2013-04-24 13:31:00,43.0,42.0,-100.00,WNW,284,3.0,16.0,95,0.18,,,0.98,9.000000,,2013-04-24 13:31:00,
2013-04-24 15:01:00,42.0,40.0,-100.00,West,280,8.0,20.0,94,-99.99,,,1.02,36.000000,,2013-04-24 15:01:00,
2013-04-24 15:11:00,42.0,40.0,-100.00,West,280,8.0,20.0,94,-99.99,,,1.02,36.000000,,2013-04-24 15:11:00,
2013-04-24 15:21:00,42.0,40.0,-100.00,West,280,8.0,20.0,94,-99.99,,,1.02,36.000000,,2013-04-24 15:21:00,
2013-04-24 15:33:00,42.0,40.0,-100.00,West,280,8.0,20.0,94,-99.99,,,1.02,36.000000,,2013-04-24 15:33:00,
2013-04-24 16:03:00,43.0,41.0,-100.00,NNW,347,3.0,15.0,94,0.01,,,1.03,89.000000,,2013-04-24 16:03:00,
2013-04-24 16:12:00,43.0,41.0,-100.00,NNW,347,3.0,15.0,94,0.01,,,1.03,89.000000,,2013-04-24 16:12:00,
2013-04-24 16:23:00,43.0,41.0,-100.00,NNW,347,3.0,15.0,94,0.01,,,1.03,89.000000,,2013-04-24 16:23:00,
2013-04-24 16:32:00,43.0,41.0,-100.00,NNW,347,3.0,15.0,94,0.01,,,1.03,89.000000,,2013-04-24 16:32:00,
2013-04-24 17:02:00,44.0,41.0,-100.00,NW,321,3.0,9.0,90,0.00,,,1.03,125.000000,,2013-04-24 17:02:00,
2013-04-24 17:12:00,44.0,41.0,-100.00,NW,321,3.0,9.0,90,0.00,,,1.03,125.000000,,2013-04-24 17:12:00,
2013-04-24 17:22:00,44.0,41.0,-100.00,NW,321,3.0,9.0,90,0.00,,,1.03,125.000000,,2013-04-24 17:22:00,
2013-04-24 17:32:00,44.0,41.0,-100.00,NW,321,3.0,9.0,90,0.00,,,1.03,125.000000,,2013-04-24 17:32:00,
2013-04-24 18:02:00,43.0,40.0,-100.00,West,276,5.0,9.0,88,0.00,,,1.03,84.000000,,2013-04-24 18:02:00,
2013-04-24 18:12:00,43.0,40.0,-100.00,West,276,5.0,9.0,88,0.00,,,1.03,84.000000,,2013-04-24 18:12:00,
2013-04-24 18:22:00,43.0,40.0,-100.00,West,276,5.0,9.0,88,0.00,,,1.03,84.000000,,2013-04-24 18:22:00,
2013-04-24 18:33:00,43.0,40.0,-100.00,West,276,5.0,9.0,88,0.00,,,1.03,84.000000,,2013-04-24 18:33:00,
2013-04-24 19:02:00,46.0,41.0,-100.00,NW,314,2.0,10.0,82,0.00,,,1.03,174.000000,,2013-04-24 19:02:00,
2013-04-24 19:11:00,46.0,41.0,-100.00,NW,314,2.0,10.0,82,0.00,,,1.03,174.000000,,2013-04-24 19:11:00,
2013-04-24 19:22:00,46.0,41.0,-100.00,NW,314,2.0,10.0,82,0.00,,,1.03,174.000000,,2013-04-24 19:22:00,
2013-04-24 19:32:00,46.0,41.0,-100.00,NW,314,2.0,10.0,82,0.00,,,1.03,174.000000,,2013-04-24 19:32:00,
2013-04-24 20:02:00,50.0,42.0,-100.00,NNW,337,4.0,15.0,73,0.00,,,1.03,334.000000,,2013-04-24 20:02:00,
2013-04-24 20:11:00,50.0,42.0,-100.00,NNW,337,4.0,15.0,73,0.00,,,1.03,334.000000,,2013-04-24 20:11:00,
2013-04-24 20:22:00,50.0,42.0,-100.00,NNW,337,4.0,15.0,73,0.00,,,1.03,334.000000,,2013-04-24 20:22:00,
2013-04-24 20:32:00,50.0,42.0,-100.00,NNW,337,4.0,15.0,73,0.00,,,1.03,334.000000,,2013-04-24 20:32:00,
2013-04-24 21:02:00,50.0,39.0,-100.00,NW,306,5.0,13.0,65,0.00,,,1.03,493.000000,,2013-04-24 21:02:00,
2013-04-24 21:11:00,50.0,39.0,-100.00,NW,306,5.0,13.0,65,0.00,,,1.03,493.000000,,2013-04-24 21:11:00,
2013-04-24 21:21:00,50.0,39.0,-100.00,NW,306,5.0,13.0,65,0.00,,,1.03,493.000000,,2013-04-24 21:21:00,
2013-04-24 21:33:00,50.0,39.0,-100.00,NW,306,5.0,13.0,65,0.00,,,1.03,493.000000,,2013-04-24 21:33:00,
2013-04-24 22:03:00,48.0,37.0,-100.00,NW,318,4.0,13.0,65,0.00,,,1.03,254.000000,,2013-04-24 22:03:00,
2013-04-24 22:12:00,48.0,37.0,-100.00,NW,318,4.0,13.0,65,0.00,,,1.03,254.000000,,2013-04-24 22:12:00,
2013-04-24 22:22:00,48.0,37.0,-100.00,NW,318,4.0,13.0,65,0.00,,,1.03,254.000000,,2013-04-24 22:22:00,
2013-04-24 22:33:00,48.0,37.0,-100.00,NW,318,4.0,13.0,65,0.00,,,1.03,254.000000,,2013-04-24 22:33:00,
2013-04-24 23:02:00,49.0,35.0,-100.00,WNW,301,5.0,12.0,58,0.00,,,1.03,226.000000,,2013-04-24 23:02:00,
2013-04-24 23:12:00,49.0,35.0,-100.00,WNW,301,5.0,12.0,58,0.00,,,1.03,226.000000,,2013-04-24 23:12:00,
2013-04-24 23:21:00,49.0,35.0,-100.00,WNW,301,5.0,12.0,58,0.00,,,1.03,226.000000,,2013-04-24 23:21:00,
2013-04-24 23:32:00,49.0,35.0,-100.00,WNW,301,5.0,12.0,58,0.00,,,1.03,226.000000,,2013-04-24 23:32:00,